Current weather by "City, St" or "zip code"  
 

Current Conditions: Warsaw Municipal Airport, MO

Overcast


49.0 F

Last Updated on Feb 27 2021, 11:55 pm CST
Humidity: 95%
Wind Speed: S 4.6 mph
Barometer 29.79 in
Dewpoint: 48.2 F
Visibility: 10.00 mi
Precip: --
Heat Index: NA
Wind Chill: 47 F
Current conditions at:

Warsaw Municipal Airport, MO (KRAW)

Lat: 38.3469 Lon: 93.3454

Local Radar Image active severe weather and emergency alerts image image weather storm and storm spotter reports image weather observation monitoring service image
Local
Radar
Active
Alerts
Storm Reports Obs
Monitoring

Sign-up For Email & Text Message Weather Alert Notification Services



Advertise Here

Observation History for Warsaw Municipal Airport, MO


Time Wind
(mph)
Vis
(mi)
Weather Precip (in) Temperature (F) Relative
Humidity
Wind
Chill
(F)
Heat
Index
(F)
Pressure
Air Dwpt altimeter
(in)
sea level
(mb)
Rmks
11:55 pm CST S 4.6 10.00 Overcast -- 49.0 48.2 95% 47 NA 29.79 M
10:55 pm CST S 9.2 10.00 Overcast -- 50.0 46.6 89% 46 NA 29.80 M
9:55 pm CST S 10.4 10.00 Overcast -- 49.0 44.8 86% 45 NA 29.82 M
8:55 pm CST SE 9.2 10.00 Overcast -- 49.0 43.7 81% 45 NA 29.83 M
7:55 pm CST S 10.4 10.00 Overcast -- 53.0 40.5 63% 50 NA 29.84 M
6:55 pm CST SE 8.1 10.00 Mostly Cloudy -- 55.0 36.7 51% 53 NA 29.82 M
5:55 pm CST SE 6.9 10.00 Fair -- 57.0 35.1 44% 56 NA 29.83 M
4:55 pm CST S 10.4 10.00 Fair -- 59.0 34.2 39% 57 NA 29.85 M
3:55 pm CST SE 9.2 G 18.4 10.00 Fair -- 62.0 34.7 37% 61 NA 29.85 M
2:55 pm CST S 12.7 G 19.6 10.00 Fair -- 60.0 33.1 36% 58 NA 29.89 M
1:55 pm CST S 12.7 G 17.3 10.00 Fair -- 60.0 32.7 36% 58 NA 29.91 M
12:55 pm CST S 9.2 G 17.3 10.00 Fair -- 58.0 34.7 42% 56 NA 29.96 M
11:55 am CST SE 9.2 10.00 Fair -- 52.0 40.1 63% 49 NA 30.00 M
10:55 am CST S 8.1 10.00 Partly Cloudy -- 45.0 43.3 93% 41 NA 30.03 M
9:55 am CST N 0.0 0.25 Fog -- 39.0 38.8 99% NA NA 30.03 M
8:55 am CST N 0.0 0.15 Fog -- 36.0 35.2 99% NA NA 30.03 M
7:55 am CST SE 4.6 0.15 Fog -- 33.0 32.9 99% 29 NA 30.02 M
6:55 am CST SE 3.5 0.15 Freezing Fog -- 31.0 30.9 99% NA NA 29.99 M
5:55 am CST S 4.6 0.25 Fog -- 33.0 32.5 99% 29 NA 29.99 M
4:55 am CST N 0.0 0.25 Fog -- 33.0 32.7 99% NA NA 29.97 M
3:55 am CST S 4.6 0.50 Fog -- 35.0 34.0 98% 31 NA 29.96 M
2:55 am CST S 4.6 1.25 Fog/Mist -- 34.0 33.8 98% 30 NA 29.97 M
1:55 am CST N 0.0 5.00 Fog/Mist -- 36.0 34.9 97% NA NA 29.98 M
12:55 am CST W 4.6 10.00 Mostly Cloudy -- 40.0 37.6 91% 37 NA 29.96 M

Regional Weather Observation


Clinton, MO, MO (KGLY)

Unknown Precip
52.0 F

Skyhaven Airport, MO (KRCM)

Overcast
50.0 F

Warsaw Municipal Airport, MO (KRAW)

Overcast
49.0 F

Sedalia, Sedalia Memorial Airport, MO (KDMO)

Overcast
51.0 F

Harrisonville Lawrence Smith Memorial Airport, MO (KLRY)

Overcast
52.0 F

Lees Summit, Lees Summit Municipal Airport, MO (KLXT)

Overcast
52.0 F

Advertise Here


Advertise Here